• In Romania
  • List of Countries
  • For 7 days
  • Water Temperature
  • Satellite Maps
  • Weather Map
  • Weather Widgets
  • user-avatar
    Login

    Hourly Weather Parakou

    Today, 20 September, Thursday

    Time Temperature Precipitation Wind Pressure Humidity
    00:00 +23°C° 0 mm 0 mps 727 mmHg 87%
    01:00 +23°C° 0.1 mm 0 mps 727 mmHg 89%
    02:00 +23°C° 0.1 mm 0 mps 727 mmHg 90%
    03:00 +25°C° 0.1 mm 1 mps 726 mmHg 91%
    04:00 +25°C° 0 mm 1 mps 727 mmHg 92%
    05:00 +24°C° 0 mm 1 mps 727 mmHg 93%
    06:00 +25°C° 0 mm 1 mps 727 mmHg 94%
    07:00 +26°C° 0 mm 1 mps 727 mmHg 88%
    08:00 +28°C° 0 mm 1 mps 728 mmHg 82%
    09:00 +30°C° 0 mm 1 mps 728 mmHg 76%
    10:00 +31°C° 0.3 mm 1 mps 728 mmHg 70%
    11:00 +32°C° 0.3 mm 1 mps 727 mmHg 64%
    12:00 +34°C° 0 mm 2 mps 727 mmHg 58%
    13:00 +34°C° 0.3 mm 2 mps 727 mmHg 58%
    14:00 +34°C° 0.3 mm 2 mps 726 mmHg 58%
    15:00 +34°C° 0.3 mm 2 mps 726 mmHg 57%
    16:00 +32°C° 0.1 mm 1 mps 725 mmHg 64%
    17:00 +30°C° 0.1 mm 1 mps 725 mmHg 70%
    18:00 +29°C° 0.1 mm 1 mps 725 mmHg 76%
    19:00 +28°C° 0 mm 1 mps 726 mmHg 78%
    20:00 +28°C° 0 mm 1 mps 726 mmHg 81%
    21:00 +27°C° 0 mm 1 mps 727 mmHg 83%
    22:00 +26°C° 0.5 mm 1 mps 727 mmHg 85%
    23:00 +26°C° 0.5 mm 1 mps 727 mmHg 88%

    Tomorrow, 21 September, Friday

    Time Temperature Precipitation Wind Pressure Humidity
    00:00 +25°C° 0.5 mm 1 mps 727 mmHg 91%
    01:00 +25°C° 0.1 mm 1 mps 726 mmHg 92%
    02:00 +25°C° 0.1 mm 1 mps 726 mmHg 94%
    03:00 +25°C° 0.1 mm 1 mps 725 mmHg 95%
    04:00 +24°C° 0 mm 1 mps 726 mmHg 96%
    05:00 +24°C° 0 mm 1 mps 726 mmHg 96%
    06:00 +24°C° 0 mm 1 mps 726 mmHg 97%
    07:00 +26°C° 0 mm 1 mps 727 mmHg 91%
    08:00 +27°C° 0 mm 2 mps 727 mmHg 85%
    09:00 +29°C° 0 mm 2 mps 728 mmHg 79%
    10:00 +31°C° 0 mm 2 mps 727 mmHg 72%
    11:00 +32°C° 0 mm 2 mps 727 mmHg 66%
    12:00 +34°C° 0 mm 1 mps 727 mmHg 60%
    13:00 +34°C° 0.3 mm 1 mps 726 mmHg 59%
    14:00 +34°C° 0.3 mm 1 mps 725 mmHg 59%
    15:00 +33°C° 0.3 mm 1 mps 724 mmHg 58%
    16:00 +32°C° 1.1 mm 1 mps 725 mmHg 67%
    17:00 +30°C° 1.1 mm 1 mps 725 mmHg 75%
    18:00 +28°C° 1.1 mm 1 mps 726 mmHg 84%
    19:00 +27°C° 0.9 mm 1 mps 726 mmHg 87%
    20:00 +27°C° 0.9 mm 2 mps 727 mmHg 89%
    21:00 +26°C° 0.9 mm 2 mps 727 mmHg 92%
    22:00 +26°C° 0 mm 2 mps 727 mmHg 93%
    23:00 +25°C° 0 mm 2 mps 727 mmHg 94%

    Day after tomorrow, 22 September, Saturday

    Time Temperature Precipitation Wind Pressure Humidity
    00:00 +25°C° 0 mm 2 mps 727 mmHg 94%
    01:00 +25°C° 0 mm 2 mps 726 mmHg 95%
    02:00 +25°C° 0 mm 2 mps 726 mmHg 95%
    03:00 +24°C° 0 mm 2 mps 726 mmHg 96%
    04:00 +24°C° 0 mm 2 mps 726 mmHg 96%
    05:00 +24°C° 0 mm 2 mps 726 mmHg 96%
    06:00 +24°C° 0 mm 2 mps 727 mmHg 96%
    07:00 +25°C° 0 mm 2 mps 727 mmHg 93%
    08:00 +26°C° 0 mm 2 mps 728 mmHg 89%
    09:00 +27°C° 0 mm 2 mps 729 mmHg 86%
    10:00 +29°C° 0 mm 2 mps 728 mmHg 79%
    11:00 +30°C° 0 mm 2 mps 728 mmHg 73%
    12:00 +32°C° 0 mm 2 mps 727 mmHg 66%
    13:00 +31°C° 0.4 mm 2 mps 727 mmHg 68%
    14:00 +31°C° 0.4 mm 1 mps 726 mmHg 70%
    15:00 +31°C° 0.4 mm 1 mps 725 mmHg 72%
    16:00 +30°C° 1.2 mm 1 mps 725 mmHg 78%
    17:00 +28°C° 1.2 mm 1 mps 725 mmHg 83%
    18:00 +27°C° 1.2 mm 1 mps 726 mmHg 89%
    19:00 +27°C° 1.7 mm 1 mps 726 mmHg 90%
    20:00 +24°C° 1.7 mm 0 mps 727 mmHg 90%
    21:00 +24°C° 1.7 mm 0 mps 728 mmHg 91%
    22:00 +24°C° 0.4 mm 0 mps 728 mmHg 91%
    23:00 +26°C° 0.4 mm 1 mps 727 mmHg 91%

    23 September, Sunday

    Time Temperature Precipitation Wind Pressure Humidity
    00:00 +25°C° 0.4 mm 1 mps 727 mmHg 91%
    01:00 +25°C° 0 mm 1 mps 727 mmHg 93%
    02:00 +25°C° 0 mm 1 mps 727 mmHg 94%
    03:00 +24°C° 0 mm 1 mps 727 mmHg 95%
    04:00 +24°C° 0 mm 1 mps 727 mmHg 96%
    05:00 +24°C° 0 mm 2 mps 727 mmHg 96%
    06:00 +24°C° 0 mm 2 mps 727 mmHg 97%
    07:00 +25°C° 0 mm 2 mps 728 mmHg 94%
    08:00 +26°C° 0 mm 2 mps 728 mmHg 90%
    09:00 +27°C° 0 mm 1 mps 729 mmHg 87%
    10:00 +27°C° 3.4 mm 2 mps 729 mmHg 87%
    11:00 +27°C° 3.4 mm 2 mps 728 mmHg 88%
    12:00 +27°C° 3.4 mm 2 mps 728 mmHg 88%
    13:00 +26°C° 0.5 mm 2 mps 727 mmHg 88%
    14:00 +26°C° 0.5 mm 2 mps 727 mmHg 87%
    15:00 +26°C° 0.5 mm 2 mps 726 mmHg 87%
    16:00 +25°C° 0 mm 1 mps 726 mmHg 88%
    17:00 +25°C° 0 mm 1 mps 726 mmHg 89%
    18:00 +25°C° 0 mm 1 mps 726 mmHg 89%
    19:00 +24°C° 0 mm 1 mps 726 mmHg 90%
    20:00 +22°C° 0 mm 0 mps 727 mmHg 90%
    21:00 +22°C° 0 mm 0 mps 727 mmHg 90%
    22:00 +22°C° 0 mm 0 mps 727 mmHg 90%
    23:00 +22°C° 0 mm 0 mps 727 mmHg 90%

    24 September, Monday

    Time Temperature Precipitation Wind Pressure Humidity
    00:00 +21°C° 0 mm 0 mps 727 mmHg 91%
    01:00 +21°C° 0 mm 0 mps 727 mmHg 91%
    02:00 +23°C° 0 mm 1 mps 726 mmHg 92%
    03:00 +23°C° 0 mm 1 mps 726 mmHg 93%
    04:00 +23°C° 0 mm 1 mps 726 mmHg 93%
    05:00 +23°C° 0 mm 1 mps 727 mmHg 94%
    06:00 +23°C° 0 mm 1 mps 727 mmHg 95%
    07:00 +25°C° 0 mm 2 mps 728 mmHg 91%
    08:00 +26°C° 0 mm 2 mps 728 mmHg 87%
    09:00 +27°C° 0 mm 2 mps 729 mmHg 84%
    10:00 +28°C° 0 mm 2 mps 728 mmHg 80%
    11:00 +29°C° 0 mm 2 mps 727 mmHg 77%
    12:00 +30°C° 0 mm 2 mps 727 mmHg 73%
    13:00 +31°C° 0 mm 1 mps 726 mmHg 71%
    14:00 +31°C° 0 mm 1 mps 726 mmHg 68%
    15:00 +32°C° 0 mm 1 mps 725 mmHg 65%
    16:00 +30°C° 1.6 mm 1 mps 726 mmHg 73%
    17:00 +29°C° 1.6 mm 1 mps 726 mmHg 81%
    18:00 +27°C° 1.6 mm 1 mps 727 mmHg 89%
    19:00 +26°C° 0.1 mm 1 mps 727 mmHg 89%
    20:00 +24°C° 0.1 mm 0 mps 728 mmHg 89%
    21:00 +24°C° 0.1 mm 0 mps 728 mmHg 90%
    22:00 +23°C° 0 mm 0 mps 728 mmHg 91%
    23:00 +23°C° 0 mm 0 mps 728 mmHg 92%

    25 September, Tuesday

    Time Temperature Precipitation Wind Pressure Humidity
    00:00 +25°C° 0 mm 1 mps 727 mmHg 93%
    01:00 +25°C° 0 mm 1 mps 727 mmHg 94%
    02:00 +25°C° 0 mm 1 mps 726 mmHg 94%
    03:00 +24°C° 0 mm 1 mps 726 mmHg 95%
    04:00 +24°C° 0 mm 1 mps 726 mmHg 95%
    05:00 +24°C° 0 mm 1 mps 726 mmHg 95%
    06:00 +24°C° 0 mm 1 mps 727 mmHg 96%
    07:00 +26°C° 0 mm 1 mps 727 mmHg 89%
    08:00 +27°C° 0 mm 1 mps 728 mmHg 83%
    09:00 +29°C° 0 mm 1 mps 728 mmHg 76%
    10:00 +29°C° 1.4 mm 1 mps 728 mmHg 76%
    11:00 +30°C° 1.4 mm 1 mps 727 mmHg 76%
    12:00 +30°C° 1.4 mm 1 mps 726 mmHg 76%
    13:00 +30°C° 1 mm 1 mps 726 mmHg 76%
    14:00 +30°C° 1 mm 1 mps 725 mmHg 76%
    15:00 +30°C° 1 mm 1 mps 725 mmHg 75%
    16:00 +29°C° 0.4 mm 1 mps 725 mmHg 80%
    17:00 +28°C° 0.4 mm 1 mps 726 mmHg 84%
    18:00 +27°C° 0.4 mm 1 mps 726 mmHg 88%
    19:00 +26°C° 0.7 mm 1 mps 727 mmHg 88%
    20:00 +26°C° 0.7 mm 1 mps 727 mmHg 89%
    21:00 +26°C° 0.7 mm 1 mps 728 mmHg 90%
    22:00 +25°C° 0.3 mm 1 mps 727 mmHg 90%
    23:00 +25°C° 0.3 mm 1 mps 727 mmHg 91%
    Show more